sat.trackr.live / text

‹ back to catalog

STARLINK-2606

NORAD 48386 · 2021-038AK

PAYLOAD ACTIVE UNKNOWN

§ Identity

Operator
Country
US
Launch date
2021-05-04
Launch site
AFETR
Launch vehicle
Mass (kg)
RCS (m²)

Purposes: comms

External: N2YO · Heavens-Above · Gunter

§ Orbital elements

Epoch: 2026-05-24T23:13:13.206144Z

Period
94.03 min
Inclination
53.1610°
Eccentricity
0.0002965
Mean motion
15.31505899 rev/d
Perigee alt
469.3 km
Apogee alt
473.3 km
Semi-major
6,849.5 km
B*
1.5851e-3
RAAN
350.7752°
Arg perigee
82.0372°
Mean anomaly
278.0966°
Rev number
27,893

§ Raw data

STARLINK-26061 48386U 21038AK  26144.96751396  .00048851  00000+0  15851-2 0  99932 48386  53.1610 350.7752 0002965  82.0372 278.0966 15.31505899278933

JSON: /api/v1/satellites/48386 · /tle

For live sub-satellite position, see the globe view (requires WebGL).

§ Visibility from observer

Set your observer location to see the next 7 days of passes ≥ 10°. The values pass through the URL so the page stays shareable.

No JS? Fill the form by hand. The geolocation button needs JavaScript.